Newburgh, NY

1:24 AM EDT on March 27, 2017 (GMT -0400)
Stewart International

Weather History for KSWF - September, 2012

Change the Weather History Date:

Saturday, September 22, 2012

  Actual Average Record
Temperature  
Mean Temperature 66 °F -  
Max Temperature 82 °F 68 °F 87 °F (1978)
Min Temperature 51 °F 49 °F 32 °F (1973)
Cooling Degree Days 2    
Growing Degree Days 16 (Base 50)    
Moisture  
Dew Point 60 °F    
Average Humidity 89    
Maximum Humidity 100    
Minimum Humidity 70    
Precipitation  
Precipitation 0.00 in - - ()
Sea Level Pressure  
Sea Level Pressure 29.91 in    
Wind  
Wind Speed 5 mph (SSE)    
Max Wind Speed 16 mph    
Max Gust Speed 28 mph    
Visibility 9 miles    
Events Rain    
Averages and records for this station are not official NWS values.
T = Trace of Precipitation, MM = Missing Value Source: NWS Daily Summary

Daily Weather History Graph

Daily Weather History Graph

Search for Another Location

Airport or City:

Trip Planner

Search our weather history database for the weather conditions in past years. The results will help you decide how hot, cold, wet, or windy it might be!

Date:

Astronomy

Sep. 22, 2012 Rise Set
Actual Time 6:44 AM EDT 6:52 PM EDT
Civil Twilight 6:16 AM EDT 7:20 PM EDT
Nautical Twilight 5:44 AM EDT 7:52 PM EDT
Astronomical Twilight 5:11 AM EDT 8:25 PM EDT
Moon 2:04 PM EDT (9/22) 11:50 PM EDT (9/22)
Length of Visible Light 13h 03m
Length of Day
12h 08m
Waxing Crescent, 48% of the Moon is Illuminated
Sep 22
Waxing Crescent
Sep 22
First Quarter
Sep 29
Full
Oct 8
Last Quarter
Oct 15
New

Hourly Weather History & Observations

Time (EDT) Temp. Heat Index Dew Point Humidity Pressure Visibility Wind Dir Wind Speed Gust Speed Precip Events Conditions
12:45 AM 55.4 °F - 53.6 °F 94% 30.02 in 10.0 mi West 5.8 mph - N/A   Clear
1:45 AM 55.4 °F - 53.6 °F 94% 30.01 in 10.0 mi Calm Calm - N/A   Clear
2:45 AM 51.8 °F - 51.8 °F 100% 30.00 in 10.0 mi Calm Calm - N/A   Scattered Clouds
4:45 AM 51.8 °F - 51.8 °F 100% 29.99 in 6.0 mi Calm Calm - N/A   Mostly Cloudy
5:45 AM 53.6 °F - 53.6 °F 100% 29.99 in 6.0 mi Calm Calm - N/A   Mostly Cloudy
7:45 AM 59.0 °F - 57.2 °F 94% 29.97 in 10.0 mi SSE 6.9 mph - N/A   Overcast
8:45 AM 60.8 °F - 59.0 °F 94% 29.95 in 10.0 mi SSE 6.9 mph - N/A   Overcast
9:45 AM 64.4 °F - 59.0 °F 83% 29.94 in 10.0 mi SSW 6.9 mph - N/A   Overcast
10:45 AM 66.2 °F - 59.0 °F 78% 29.92 in 10.0 mi South 9.2 mph 16.1 mph N/A   Overcast
11:50 AM 82.4 °F 87.2 °F 71.6 °F 70% 30.10 in 10.0 mi ENE 3.5 mph - N/A   Scattered Clouds
12:45 PM 68.0 °F - 60.8 °F 78% 29.88 in 10.0 mi SSE 11.5 mph 20.7 mph N/A   Overcast
1:45 PM 69.8 °F - 62.6 °F 78% 29.85 in 10.0 mi SSE 11.5 mph 18.4 mph N/A   Overcast
2:45 PM 71.6 °F - 64.4 °F 78% 29.84 in 10.0 mi SSE 9.2 mph 18.4 mph N/A   Mostly Cloudy
3:45 PM 69.8 °F - 64.4 °F 83% 29.83 in 10.0 mi SE 9.2 mph - N/A   Mostly Cloudy
4:45 PM 71.6 °F - 66.2 °F 83% 29.82 in 10.0 mi SE 6.9 mph - N/A   Overcast
5:45 PM 68.0 °F - 66.2 °F 94% 29.82 in 10.0 mi SE 6.9 mph - N/A Rain Light Rain
6:45 PM 68.0 °F - 66.2 °F 94% 29.80 in 10.0 mi SE 9.2 mph - N/A   Mostly Cloudy
7:45 PM 68.0 °F - 66.2 °F 94% 29.79 in 10.0 mi SE 9.2 mph - N/A   Overcast
8:45 PM 60.8 °F - 59.0 °F 94% 29.85 in 4.0 mi NW 16.1 mph 27.6 mph N/A Rain Rain
10:45 PM 60.8 °F - 59.0 °F 94% 29.87 in 6.0 mi Calm Calm - N/A   Overcast
11:45 PM 60.8 °F - 59.0 °F 94% 29.87 in 5.0 mi Calm Calm - N/A Rain Light Rain